"read_dt","SO2 (ppb)","flags","PMT voltage (V)","lamp voltage (V)","lamp intensity (Hz)","internal temp (C)","react chamber temp (C)","sample flow (l/min)","pres (mmHg)","SO2 bkg (ppb)","SO2 coefficient"
2016-04-12 00:00:00,1977E-3,5C000400,-0724,0834,11211,027.6,045.4,0.256,754.7,01.17,0.508
2016-04-12 00:01:00,1886E-3,5C000400,-0724,0837,12079,027.6,045.4,0.256,754.7,01.17,0.508
2016-04-12 00:02:00,1926E-3,5C000400,-0724,0837,11965,027.6,045.4,0.256,754.7,01.17,0.508
2016-04-12 00:03:00,2063E-3,5C000400,-0724,0836,12246,027.7,045.4,0.255,754.7,01.17,0.508
2016-04-12 00:04:00,1919E-3,5C000400,-0724,0836,12289,027.7,045.4,0.256,754.7,01.17,0.508
2016-04-12 00:05:00,1904E-3,5C000400,-0724,0836,12009,027.7,045.4,0.256,754.7,01.17,0.508
2016-04-12 00:06:00,1975E-3,5C000400,-0724,0836,12225,027.7,045.4,0.256,754.7,01.17,0.508
2016-04-12 00:07:00,2002E-3,5C000400,-0724,0839,12255,027.7,045.4,0.255,754.6,01.17,0.508
2016-04-12 00:08:00,1950E-3,5C000400,-0724,0837,12150,027.7,045.4,0.256,754.6,01.17,0.508
2016-04-12 00:09:00,1921E-3,5C000400,-0724,0837,12217,027.7,045.4,0.256,754.6,01.17,0.508
2016-04-12 00:10:00,2012E-3,5C000400,-0724,0836,12489,027.7,045.4,0.256,754.6,01.17,0.508
2016-04-12 00:11:00,1991E-3,5C000400,-0724,0836,12190,027.7,045.4,0.255,754.7,01.17,0.508
2016-04-12 00:12:00,1866E-3,5C000400,-0724,0837,11287,027.8,045.4,0.256,754.7,01.17,0.508
2016-04-12 00:13:00,1976E-3,5C000400,-0724,0835,12201,027.7,045.4,0.256,754.7,01.17,0.508
2016-04-12 00:14:00,2041E-3,5C000400,-0724,0836,12331,027.8,045.4,0.256,754.7,01.17,0.508
2016-04-12 00:15:00,1947E-3,5C000400,-0724,0837,11185,027.8,045.4,0.255,754.7,01.17,0.508
2016-04-12 00:16:00,1780E-3,5C000400,-0724,0838,12290,027.8,045.4,0.255,754.7,01.17,0.508
2016-04-12 00:17:00,1814E-3,5C000400,-0724,0837,10076,027.8,045.4,0.255,754.7,01.17,0.508
2016-04-12 00:18:00,1877E-3,5C000400,-0724,0837,11029,027.8,045.4,0.255,754.7,01.17,0.508
2016-04-12 00:19:00,1893E-3,5C000400,-0724,0837,12399,027.8,045.4,0.255,754.7,01.17,0.508
2016-04-12 00:20:00,2099E-3,5C000400,-0724,0836,12381,027.8,045.4,0.256,754.7,01.17,0.508
2016-04-12 00:21:00,1837E-3,5C000400,-0724,0837,12251,027.8,045.4,0.256,754.7,01.17,0.508
2016-04-12 00:22:00,1796E-3,5C000400,-0724,0836,12186,027.8,045.4,0.255,754.7,01.17,0.508
2016-04-12 00:23:00,1817E-3,5C000400,-0724,0840,12029,027.8,045.4,0.255,754.7,01.17,0.508
2016-04-12 00:24:00,1853E-3,5C000400,-0724,0836,12303,027.9,045.4,0.255,754.7,01.17,0.508
2016-04-12 00:25:00,1817E-3,5C000400,-0724,0836,10909,027.9,045.4,0.255,754.7,01.17,0.508
2016-04-12 00:26:00,1818E-3,5C000400,-0724,0836,12130,027.9,045.4,0.255,754.7,01.17,0.508
2016-04-12 00:27:00,1932E-3,5C000400,-0724,0839,11141,027.9,045.4,0.255,754.7,01.17,0.508
2016-04-12 00:28:00,1860E-3,5C000400,-0724,0835,12175,027.9,045.4,0.255,754.7,01.17,0.508
2016-04-12 00:29:00,1817E-3,5C000400,-0724,0837,9861,027.9,045.4,0.256,754.7,01.17,0.508
2016-04-12 00:30:00,2000E-3,5C000400,-0724,0833,12135,028.0,045.4,0.255,754.7,01.17,0.508
2016-04-12 00:31:00,1903E-3,5C000400,-0724,0839,12311,028.0,045.4,0.255,754.7,01.17,0.508
2016-04-12 00:32:00,2025E-3,5C000400,-0724,0838,11199,028.0,045.4,0.255,754.7,01.17,0.508
2016-04-12 00:33:00,1856E-3,5C000400,-0724,0838,12387,027.9,045.4,0.255,754.7,01.17,0.508
2016-04-12 00:34:00,1796E-3,5C000400,-0724,0834,12268,028.0,045.4,0.255,754.7,01.17,0.508
2016-04-12 00:35:00,2034E-3,5C000400,-0724,0834,11162,028.0,045.4,0.255,754.7,01.17,0.508
2016-04-12 00:36:00,1871E-3,5C000400,-0724,0837,12333,028.0,045.4,0.255,754.7,01.17,0.508
2016-04-12 00:37:00,1937E-3,5C000400,-0724,0836,12192,028.0,045.4,0.255,754.7,01.17,0.508
2016-04-12 00:38:00,2005E-3,5C000400,-0724,0835,12271,028.0,045.4,0.255,754.7,01.17,0.508
2016-04-12 00:39:00,2055E-3,5C000400,-0724,0837,11191,028.0,045.4,0.255,754.7,01.17,0.508
2016-04-12 00:40:00,1948E-3,5C000400,-0724,0838,12231,028.0,045.4,0.255,754.7,01.17,0.508
2016-04-12 00:41:00,1678E-3,5C000400,-0724,0838,12170,028.1,045.4,0.255,754.7,01.17,0.508
2016-04-12 00:42:00,1830E-3,5C000410,-0724,0837,12505,028.1,045.4,0.255,754.7,01.17,0.508
2016-04-12 00:43:00,1908E-3,5C000400,-0724,0838,12444,028.0,045.4,0.255,754.7,01.17,0.508
2016-04-12 00:44:00,1877E-3,5C000400,-0724,0837,12339,028.1,045.4,0.255,754.7,01.17,0.508
2016-04-12 00:45:00,1773E-3,5C000400,-0724,0840,12449,028.1,045.4,0.255,754.7,01.17,0.508
2016-04-12 00:46:00,1914E-3,5C000400,-0724,0840,10310,028.1,045.4,0.255,754.7,01.17,0.508
2016-04-12 00:47:00,1922E-3,5C000400,-0724,0838,11389,028.1,045.5,0.255,754.7,01.17,0.508
2016-04-12 00:48:00,1779E-3,5C000400,-0724,0836,12141,028.1,045.4,0.255,754.7,01.17,0.508
2016-04-12 00:49:00,1854E-3,5C000400,-0724,0838,11243,028.1,045.4,0.255,754.7,01.17,0.508
2016-04-12 00:50:00,1942E-3,5C000400,-0724,0836,10941,028.1,045.4,0.255,754.7,01.17,0.508
2016-04-12 00:51:00,1910E-3,5C000410,-0724,0838,9881,028.2,045.4,0.255,754.7,01.17,0.508
2016-04-12 00:52:00,1987E-3,5C000400,-0724,0835,12159,028.2,045.4,0.255,754.8,01.17,0.508
2016-04-12 00:53:00,1857E-3,5C000400,-0724,0837,12401,028.2,045.4,0.254,754.8,01.17,0.508
2016-04-12 00:54:00,2025E-3,5C000400,-0724,0837,12262,028.2,045.4,0.254,754.8,01.17,0.508
2016-04-12 00:55:00,1973E-3,5C000400,-0724,0839,11133,028.2,045.4,0.255,754.7,01.17,0.508
2016-04-12 00:56:00,1889E-3,5C000400,-0724,0838,11299,028.2,045.4,0.255,754.8,01.17,0.508
2016-04-12 00:57:00,1921E-3,5C000400,-0724,0840,11145,028.2,045.4,0.255,754.8,01.17,0.508
2016-04-12 00:58:00,1871E-3,5C000400,-0724,0837,12290,028.3,045.4,0.255,754.8,01.17,0.508
2016-04-12 00:59:00,1972E-3,5C000400,-0724,0840,11245,028.3,045.4,0.255,754.8,01.17,0.508
2016-04-12 01:00:00,1919E-3,5C000400,-0724,0836,12141,028.3,045.4,0.255,754.8,01.17,0.508
2016-04-12 01:01:00,1904E-3,5C000400,-0724,0839,12429,028.3,045.4,0.255,754.8,01.17,0.508
2016-04-12 01:02:00,1897E-3,5C000400,-0724,0835,12350,028.3,045.4,0.255,754.8,01.17,0.508
2016-04-12 01:03:00,1874E-3,5C000400,-0724,0840,11268,028.3,045.4,0.254,754.8,01.17,0.508
2016-04-12 01:04:00,2083E-3,5C000400,-0724,0838,12359,028.3,045.4,0.254,754.8,01.17,0.508
2016-04-12 01:05:00,1823E-3,5C000410,-0724,0837,11298,028.3,045.4,0.254,754.8,01.17,0.508
2016-04-12 01:06:00,1884E-3,5C000400,-0724,0837,12142,028.4,045.4,0.254,754.8,01.17,0.508
2016-04-12 01:07:00,1907E-3,5C000400,-0724,0837,12274,028.4,045.4,0.255,754.7,01.17,0.508
2016-04-12 01:08:00,1775E-3,5C000400,-0724,0837,12166,028.4,045.4,0.255,754.7,01.17,0.508
2016-04-12 01:09:00,1946E-3,5C000400,-0724,0835,11034,028.4,045.4,0.255,754.7,01.17,0.508
2016-04-12 01:10:00,1914E-3,5C000400,-0724,0836,11264,028.4,045.4,0.255,754.7,01.17,0.508
2016-04-12 01:11:00,1898E-3,5C000400,-0724,0839,11524,028.4,045.4,0.255,754.8,01.17,0.508
2016-04-12 01:12:00,1957E-3,5C000400,-0724,0836,12316,028.4,045.4,0.255,754.8,01.17,0.508
2016-04-12 01:13:00,1914E-3,5C000400,-0724,0838,12180,028.4,045.4,0.254,754.8,01.17,0.508
2016-04-12 01:14:00,1923E-3,5C000400,-0724,0835,12124,028.4,045.4,0.254,754.8,01.17,0.508
2016-04-12 01:15:00,1829E-3,5C000400,-0724,0836,12124,028.4,045.4,0.254,754.8,01.17,0.508
2016-04-12 01:16:00,2009E-3,5C000400,-0724,0836,12206,028.5,045.5,0.254,754.8,01.17,0.508
2016-04-12 01:17:00,2109E-3,5C000400,-0724,0837,12473,028.4,045.4,0.254,754.8,01.17,0.508
2016-04-12 01:18:00,1918E-3,5C000400,-0724,0838,11196,028.5,045.4,0.254,754.8,01.17,0.508
2016-04-12 01:19:00,1894E-3,5C000400,-0724,0836,12087,028.5,045.5,0.254,754.7,01.17,0.508
2016-04-12 01:20:00,1993E-3,5C000400,-0724,0836,12074,028.5,045.4,0.254,754.7,01.17,0.508
2016-04-12 01:21:00,2027E-3,5C000400,-0724,0837,11365,028.5,045.4,0.254,754.7,01.17,0.508
2016-04-12 01:22:00,1899E-3,5C000400,-0724,0839,12283,028.5,045.4,0.254,754.7,01.17,0.508
2016-04-12 01:23:00,2084E-3,5C000400,-0724,0836,12327,028.6,045.4,0.254,754.8,01.17,0.508
2016-04-12 01:24:00,1898E-3,5C000400,-0724,0837,12345,028.6,045.4,0.254,754.7,01.17,0.508
2016-04-12 01:25:00,1897E-3,5C000400,-0724,0839,12605,028.6,045.5,0.254,754.7,01.17,0.508
2016-04-12 01:26:00,1862E-3,5C000400,-0724,0836,12001,028.6,045.4,0.254,754.7,01.17,0.508
2016-04-12 01:27:00,1807E-3,5C000400,-0724,0839,9815,028.6,045.4,0.254,754.7,01.17,0.508
2016-04-12 01:28:00,1878E-3,5C000400,-0724,0838,11125,028.6,045.4,0.254,754.7,01.17,0.508
2016-04-12 01:29:00,1916E-3,5C000410,-0724,0835,9934,028.6,045.4,0.254,754.7,01.17,0.508
2016-04-12 01:30:00,1794E-3,5C000400,-0724,0840,12475,028.6,045.4,0.254,754.8,01.17,0.508
2016-04-12 01:31:00,1933E-3,5C000400,-0724,0840,12487,028.7,045.4,0.254,754.8,01.17,0.508
2016-04-12 01:32:00,1937E-3,5C000400,-0724,0836,11066,028.7,045.4,0.254,754.7,01.17,0.508
2016-04-12 01:33:00,1852E-3,5C000400,-0724,0840,12343,028.6,045.4,0.254,754.7,01.17,0.508
2016-04-12 01:34:00,1873E-3,5C000400,-0724,0838,12360,028.7,045.4,0.254,754.7,01.17,0.508
2016-04-12 01:35:00,1952E-3,5C000400,-0724,0838,11346,028.7,045.5,0.254,754.8,01.17,0.508
2016-04-12 01:36:00,1828E-3,5C000400,-0724,0834,12026,028.7,045.4,0.254,754.8,01.17,0.508
2016-04-12 01:37:00,1947E-3,5C000400,-0724,0835,12330,028.7,045.4,0.254,754.8,01.17,0.508
2016-04-12 01:38:00,1980E-3,5C000400,-0724,0835,11963,028.7,045.4,0.254,754.8,01.17,0.508
2016-04-12 01:39:00,1810E-3,5C000400,-0724,0835,12283,028.7,045.4,0.254,754.8,01.17,0.508
2016-04-12 01:40:00,2157E-3,5C000400,-0724,0840,12094,028.7,045.5,0.254,754.8,01.17,0.508
2016-04-12 01:41:00,1906E-3,5C000400,-0724,0837,12065,028.7,045.4,0.254,754.8,01.17,0.508
2016-04-12 01:42:00,1878E-3,5C000400,-0724,0838,12279,028.8,045.4,0.254,754.8,01.17,0.508
2016-04-12 01:43:00,1861E-3,5C000400,-0724,0837,12270,028.8,045.4,0.254,754.8,01.17,0.508
2016-04-12 01:44:00,1794E-3,5C000400,-0724,0839,12469,028.8,045.4,0.254,754.8,01.17,0.508
2016-04-12 01:45:00,1960E-3,5C000400,-0724,0838,12215,028.7,045.4,0.253,754.8,01.17,0.508
2016-04-12 01:46:00,1925E-3,5C000400,-0724,0837,11302,028.8,045.4,0.253,754.8,01.17,0.508
2016-04-12 01:47:00,1966E-3,5C000400,-0724,0837,12318,028.8,045.4,0.253,754.8,01.17,0.508
2016-04-12 01:48:00,1943E-3,5C000400,-0724,0835,11996,028.8,045.4,0.253,754.8,01.17,0.508
2016-04-12 01:49:00,1872E-3,5C000400,-0724,0839,12178,028.8,045.5,0.253,754.8,01.17,0.508
2016-04-12 01:50:00,1798E-3,5C000400,-0724,0836,12199,028.9,045.4,0.253,754.8,01.17,0.508
2016-04-12 01:51:00,1940E-3,5C000400,-0724,0836,12220,028.9,045.4,0.253,754.8,01.17,0.508
2016-04-12 01:52:00,2061E-3,5C000400,-0724,0835,10911,028.9,045.5,0.253,754.9,01.17,0.508
2016-04-12 01:53:00,1817E-3,5C000400,-0724,0838,12250,028.9,045.5,0.253,754.9,01.17,0.508
2016-04-12 01:54:00,2039E-3,5C000400,-0724,0839,12331,028.9,045.5,0.253,754.9,01.17,0.508
2016-04-12 01:55:00,1965E-3,5C000400,-0724,0834,12177,028.9,045.5,0.253,754.9,01.17,0.508
2016-04-12 01:56:00,1975E-3,5C000400,-0724,0835,12187,028.9,045.5,0.253,754.9,01.17,0.508
2016-04-12 01:57:00,1945E-3,5C000400,-0724,0836,12298,028.9,045.5,0.253,754.9,01.17,0.508
2016-04-12 01:58:00,2117E-3,5C000400,-0724,0837,12443,028.9,045.4,0.253,754.9,01.17,0.508
2016-04-12 01:59:00,1916E-3,5C000400,-0724,0838,12506,028.9,045.5,0.253,754.9,01.17,0.508
2016-04-12 02:00:00,1992E-3,5C000400,-0724,0837,12373,029.0,045.5,0.253,754.9,01.17,0.508
2016-04-12 02:01:00,1864E-3,5C000400,-0724,0836,12202,028.9,045.5,0.253,754.9,01.17,0.508
2016-04-12 02:02:00,1950E-3,5C000400,-0724,0836,12340,029.0,045.5,0.253,754.9,01.17,0.508
2016-04-12 02:03:00,2007E-3,5C000400,-0724,0836,11425,029.0,045.5,0.254,754.9,01.17,0.508
2016-04-12 02:04:00,1954E-3,5C000400,-0724,0835,12162,029.0,045.5,0.254,754.9,01.17,0.508
2016-04-12 02:05:00,2070E-3,5C000400,-0724,0835,11134,029.0,045.5,0.254,754.9,01.17,0.508
2016-04-12 02:06:00,2068E-3,5C000400,-0724,0835,12475,029.0,045.5,0.254,754.9,01.17,0.508
2016-04-12 02:07:00,1951E-3,5C000400,-0724,0836,12293,029.0,045.5,0.254,754.8,01.17,0.508
2016-04-12 02:08:00,1948E-3,5C000400,-0724,0834,10969,029.0,045.5,0.254,754.8,01.17,0.508
2016-04-12 02:09:00,1923E-3,5C000400,-0724,0835,11257,029.1,045.5,0.253,754.8,01.17,0.508
2016-04-12 02:10:00,1986E-3,5C000400,-0724,0836,11140,029.1,045.5,0.254,754.8,01.17,0.508
2016-04-12 02:11:00,1923E-3,5C000400,-0724,0836,11010,029.1,045.5,0.253,754.9,01.17,0.508
2016-04-12 02:12:00,1927E-3,5C000400,-0724,0835,12400,029.1,045.4,0.253,754.9,01.17,0.508
2016-04-12 02:13:00,2059E-3,5C000400,-0724,0839,12260,029.1,045.4,0.253,754.9,01.17,0.508
2016-04-12 02:14:00,1894E-3,5C000400,-0724,0838,12065,029.1,045.5,0.253,754.9,01.17,0.508
2016-04-12 02:15:00,1853E-3,5C000400,-0724,0839,12434,029.1,045.4,0.253,754.9,01.17,0.508
2016-04-12 02:16:00,1815E-3,5C000400,-0724,0836,12257,029.1,045.5,0.253,754.9,01.17,0.508
2016-04-12 02:17:00,1881E-3,5C000400,-0724,0837,12229,029.1,045.4,0.253,754.9,01.17,0.508
2016-04-12 02:18:00,1914E-3,5C000400,-0724,0836,12206,029.2,045.5,0.253,754.9,01.17,0.508
2016-04-12 02:19:00,1941E-3,5C000400,-0724,0835,12314,029.1,045.5,0.253,754.9,01.17,0.508
2016-04-12 02:20:00,1876E-3,5C000400,-0724,0838,10958,029.2,045.5,0.253,754.9,01.17,0.508
2016-04-12 02:21:00,1966E-3,5C000400,-0724,0836,12145,029.2,045.5,0.253,754.9,01.17,0.508
2016-04-12 02:22:00,2053E-3,5C000400,-0724,0835,12279,029.2,045.5,0.253,754.9,01.17,0.508
2016-04-12 02:23:00,1824E-3,5C000400,-0724,0839,12482,029.2,045.5,0.253,754.9,01.17,0.508
2016-04-12 02:24:00,1917E-3,5C000400,-0724,0839,12233,029.2,045.5,0.253,754.9,01.17,0.508
2016-04-12 02:25:00,1784E-3,5C000400,-0724,0837,11250,029.2,045.5,0.253,754.9,01.17,0.508
2016-04-12 02:26:00,1804E-3,5C000400,-0724,0836,12102,029.2,045.5,0.253,754.9,01.17,0.508
2016-04-12 02:27:00,1987E-3,5C000400,-0724,0835,12298,029.2,045.5,0.253,754.9,01.17,0.508
2016-04-12 02:28:00,1759E-3,5C000400,-0724,0837,11228,029.3,045.5,0.253,754.9,01.17,0.508
2016-04-12 02:29:00,1821E-3,5C000400,-0724,0839,11191,029.3,045.5,0.253,754.9,01.17,0.508
2016-04-12 02:30:00,1870E-3,5C000400,-0724,0836,12224,029.3,045.5,0.253,754.8,01.17,0.508
2016-04-12 02:31:00,2005E-3,5C000400,-0724,0836,12412,029.3,045.5,0.253,754.8,01.17,0.508
2016-04-12 02:32:00,2053E-3,5C000400,-0724,0838,11007,029.3,045.5,0.253,754.9,01.17,0.508
2016-04-12 02:33:00,1969E-3,5C000400,-0724,0835,12314,029.3,045.5,0.253,754.9,01.17,0.508
2016-04-12 02:34:00,1912E-3,5C000400,-0724,0836,12436,029.3,045.5,0.253,754.9,01.17,0.508
2016-04-12 02:35:00,1904E-3,5C000400,-0724,0837,12263,029.3,045.5,0.253,754.9,01.17,0.508
2016-04-12 02:36:00,1982E-3,5C000400,-0724,0835,12366,029.4,045.5,0.253,754.9,01.17,0.508
2016-04-12 02:37:00,1932E-3,5C000400,-0724,0837,12139,029.4,045.5,0.253,754.9,01.17,0.508
2016-04-12 02:38:00,1910E-3,5C000400,-0724,0835,12442,029.4,045.5,0.253,754.9,01.17,0.508
2016-04-12 02:39:00,1881E-3,5C000400,-0724,0836,11936,029.4,045.5,0.253,754.9,01.17,0.508
2016-04-12 02:40:00,1945E-3,5C000400,-0724,0837,12277,029.4,045.5,0.253,754.9,01.17,0.508
2016-04-12 02:41:00,1940E-3,5C000400,-0724,0835,12345,029.4,045.5,0.253,754.9,01.17,0.508
2016-04-12 02:42:00,1843E-3,5C000400,-0724,0837,12415,029.4,045.5,0.253,754.9,01.17,0.508
2016-04-12 02:43:00,2057E-3,5C000400,-0724,0836,12029,029.5,045.5,0.253,754.9,01.17,0.508
2016-04-12 02:44:00,1918E-3,5C000400,-0724,0841,8854,029.4,045.5,0.253,754.9,01.17,0.508
2016-04-12 02:45:00,1977E-3,5C000400,-0724,0837,11266,029.4,045.4,0.253,754.9,01.17,0.508
2016-04-12 02:46:00,1923E-3,5C000400,-0724,0836,12408,029.5,045.5,0.253,755.0,01.17,0.508
2016-04-12 02:47:00,1931E-3,5C000400,-0724,0834,12209,029.5,045.5,0.253,755.0,01.17,0.508
2016-04-12 02:48:00,1764E-3,5C000400,-0724,0837,12420,029.5,045.5,0.253,755.0,01.17,0.508
2016-04-12 02:49:00,1973E-3,5C000400,-0724,0834,12265,029.5,045.5,0.252,755.0,01.17,0.508
2016-04-12 02:50:00,1998E-3,5C000400,-0724,0836,12142,029.5,045.5,0.252,754.9,01.17,0.508
2016-04-12 02:51:00,1866E-3,5C000400,-0724,0837,11099,029.5,045.5,0.252,755.0,01.17,0.508
2016-04-12 02:52:00,1833E-3,5C000400,-0724,0836,12498,029.6,045.5,0.252,755.0,01.17,0.508
2016-04-12 02:53:00,1776E-3,5C000400,-0724,0838,12258,029.5,045.5,0.252,755.0,01.17,0.508
2016-04-12 02:54:00,2086E-3,5C000400,-0724,0836,11265,029.6,045.5,0.252,754.9,01.17,0.508
2016-04-12 02:55:00,1919E-3,5C000400,-0724,0836,12018,029.6,045.5,0.252,754.9,01.17,0.508
2016-04-12 02:56:00,1820E-3,5C000400,-0724,0836,10931,029.6,045.5,0.252,754.9,01.17,0.508
2016-04-12 02:57:00,1814E-3,5C000400,-0724,0836,12095,029.6,045.5,0.252,754.9,01.17,0.508
2016-04-12 02:58:00,1914E-3,5C000400,-0724,0837,12263,029.6,045.5,0.252,754.9,01.17,0.508
2016-04-12 02:59:00,1997E-3,5C000400,-0724,0834,12086,029.6,045.5,0.252,754.9,01.17,0.508
2016-04-12 03:00:00,1909E-3,5C000400,-0724,0836,12073,029.6,045.5,0.252,754.9,01.17,0.508
2016-04-12 03:01:00,2029E-3,5C000400,-0724,0834,12163,029.6,045.5,0.252,754.9,01.17,0.508
2016-04-12 03:02:00,1884E-3,5C000400,-0724,0835,11096,029.7,045.5,0.252,754.9,01.17,0.508
2016-04-12 03:03:00,1979E-3,5C000400,-0724,0835,12200,029.7,045.5,0.252,754.9,01.17,0.508
2016-04-12 03:04:00,1940E-3,5C000400,-0724,0835,12026,029.7,045.5,0.252,754.9,01.17,0.508
2016-04-12 03:05:00,1866E-3,5C000400,-0724,0839,11204,029.7,045.5,0.252,754.9,01.17,0.508
2016-04-12 03:06:00,1826E-3,5C000400,-0724,0836,12285,029.7,045.5,0.252,754.9,01.17,0.508
2016-04-12 03:07:00,1916E-3,5C000400,-0724,0836,12150,029.7,045.5,0.252,754.8,01.17,0.508
2016-04-12 03:08:00,1945E-3,5C000400,-0724,0836,11119,029.7,045.5,0.252,754.8,01.17,0.508
2016-04-12 03:09:00,2092E-3,5C000400,-0724,0835,12438,029.7,045.5,0.253,754.8,01.17,0.508
2016-04-12 03:10:00,1978E-3,5C000400,-0724,0835,12223,029.8,045.5,0.252,754.8,01.17,0.508
2016-04-12 03:11:00,1942E-3,5C000400,-0724,0836,12220,029.8,045.5,0.252,754.9,01.17,0.508
2016-04-12 03:12:00,1976E-3,5C000400,-0724,0837,12419,029.8,045.5,0.252,754.9,01.17,0.508
2016-04-12 03:13:00,1805E-3,5C000400,-0724,0838,12178,029.8,045.5,0.252,754.9,01.17,0.508
2016-04-12 03:14:00,1991E-3,5C000400,-0724,0837,12226,029.8,045.5,0.252,754.9,01.17,0.508
2016-04-12 03:15:00,1998E-3,5C000400,-0724,0838,12419,029.8,045.5,0.252,754.9,01.17,0.508
2016-04-12 03:16:00,2093E-3,5C000410,-0724,0836,12481,029.8,045.5,0.252,754.9,01.17,0.508
2016-04-12 03:17:00,1784E-3,5C000400,-0724,0841,12215,029.8,045.5,0.252,754.9,01.17,0.508
2016-04-12 03:18:00,1972E-3,5C000400,-0724,0838,12584,029.8,045.5,0.252,754.9,01.17,0.508
2016-04-12 03:19:00,2036E-3,5C000400,-0724,0836,12241,029.9,045.5,0.252,754.9,01.17,0.508
2016-04-12 03:20:00,1810E-3,5C000400,-0724,0836,11102,029.9,045.5,0.252,754.9,01.17,0.508
2016-04-12 03:21:00,2012E-3,5C000400,-0724,0839,12271,029.9,045.5,0.252,754.9,01.17,0.508
2016-04-12 03:22:00,2052E-3,5C000400,-0724,0836,12284,029.9,045.5,0.252,754.9,01.17,0.508
2016-04-12 03:23:00,1998E-3,5C000400,-0724,0837,12220,029.9,045.5,0.252,754.9,01.17,0.508
2016-04-12 03:24:00,1881E-3,5C000400,-0724,0836,12001,029.9,045.5,0.252,754.9,01.17,0.508
2016-04-12 03:25:00,1992E-3,5C000400,-0724,0837,12157,029.9,045.5,0.252,754.9,01.17,0.508
2016-04-12 03:26:00,2048E-3,5C000400,-0724,0837,11350,029.9,045.5,0.252,754.9,01.17,0.508
2016-04-12 03:27:00,1996E-3,5C000400,-0724,0834,12176,030.0,045.5,0.252,754.9,01.17,0.508
2016-04-12 03:28:00,1871E-3,5C000400,-0724,0836,12166,029.9,045.5,0.251,754.9,01.17,0.508
2016-04-12 03:29:00,1862E-3,5C000400,-0724,0836,12324,029.9,045.5,0.251,754.9,01.17,0.508
2016-04-12 03:30:00,1965E-3,5C000400,-0724,0835,12113,030.0,045.5,0.251,754.9,01.17,0.508
2016-04-12 03:31:00,1939E-3,5C000400,-0724,0836,12235,030.0,045.5,0.251,754.9,01.17,0.508
2016-04-12 03:32:00,1960E-3,5C000400,-0724,0836,11199,030.0,045.5,0.251,754.9,01.17,0.508
2016-04-12 03:33:00,1832E-3,5C000400,-0724,0836,12183,030.0,045.5,0.251,754.9,01.17,0.508
2016-04-12 03:34:00,1982E-3,5C000400,-0724,0835,12350,030.0,045.5,0.251,754.9,01.17,0.508
2016-04-12 03:35:00,1797E-3,5C000400,-0724,0835,12184,030.0,045.5,0.251,754.9,01.17,0.508
2016-04-12 03:36:00,1938E-3,5C000400,-0724,0836,12316,030.0,045.5,0.251,754.9,01.17,0.508
2016-04-12 03:37:00,1946E-3,5C000400,-0724,0835,12399,030.1,045.5,0.251,754.9,01.17,0.508
2016-04-12 03:38:00,2100E-3,5C000400,-0724,0836,12128,030.0,045.5,0.251,754.9,01.17,0.508
2016-04-12 03:39:00,1929E-3,5C000400,-0724,0835,12025,030.0,045.5,0.251,754.9,01.17,0.508
2016-04-12 03:40:00,1916E-3,5C000400,-0724,0835,12162,030.1,045.5,0.251,754.9,01.17,0.508
2016-04-12 03:41:00,1882E-3,5C000400,-0724,0836,11941,030.1,045.5,0.251,754.9,01.17,0.508
2016-04-12 03:42:00,1954E-3,5C000400,-0724,0835,12176,030.1,045.5,0.251,754.9,01.17,0.508
2016-04-12 03:43:00,1810E-3,5C000400,-0724,0838,12158,030.1,045.5,0.251,754.9,01.17,0.508
2016-04-12 03:44:00,1911E-3,5C000400,-0724,0836,10958,030.1,045.5,0.251,754.9,01.17,0.508
2016-04-12 03:45:00,1903E-3,5C000400,-0724,0837,12216,030.1,045.5,0.251,754.9,01.17,0.508
2016-04-12 03:46:00,2053E-3,5C000400,-0724,0836,12236,030.1,045.5,0.251,754.9,01.17,0.508
2016-04-12 03:47:00,2087E-3,5C000400,-0724,0840,10023,030.1,045.5,0.251,754.9,01.17,0.508
2016-04-12 03:48:00,1902E-3,5C000400,-0724,0836,12504,030.2,045.5,0.251,754.9,01.17,0.508
2016-04-12 03:49:00,1908E-3,5C000400,-0724,0839,12363,030.2,045.5,0.251,754.9,01.17,0.508
2016-04-12 03:50:00,1844E-3,5C000400,-0724,0836,11042,030.1,045.5,0.251,754.9,01.17,0.508
2016-04-12 03:51:00,1984E-3,5C000400,-0724,0835,11974,030.2,045.5,0.251,754.9,01.17,0.508
2016-04-12 03:52:00,1925E-3,5C000400,-0724,0836,11100,030.2,045.5,0.251,754.9,01.17,0.508
2016-04-12 03:53:00,1893E-3,5C000400,-0724,0836,12179,030.2,045.5,0.251,754.9,01.17,0.508
2016-04-12 03:54:00,1833E-3,5C000400,-0724,0837,12307,030.2,045.5,0.251,754.9,01.17,0.508
2016-04-12 03:55:00,1996E-3,5C000400,-0724,0838,12099,030.2,045.5,0.251,754.9,01.17,0.508
2016-04-12 03:56:00,1911E-3,5C000410,-0724,0835,12223,030.2,045.5,0.251,754.9,01.17,0.508
2016-04-12 03:57:00,2063E-3,5C000400,-0724,0835,12171,030.2,045.5,0.251,754.9,01.17,0.508
2016-04-12 03:58:00,1998E-3,5C000400,-0724,0834,12209,030.2,045.5,0.251,754.9,01.17,0.508
2016-04-12 03:59:00,1972E-3,5C000400,-0724,0836,12283,030.2,045.5,0.251,754.9,01.17,0.508
2016-04-12 04:00:00,1790E-3,5C000400,-0724,0837,12204,030.2,045.5,0.251,754.9,01.17,0.508
2016-04-12 04:01:00,1985E-3,5C000410,-0724,0835,12167,030.2,045.5,0.251,754.9,01.17,0.508
2016-04-12 04:02:00,1897E-3,5C000400,-0724,0836,12182,030.3,045.5,0.251,754.9,01.17,0.508
2016-04-12 04:03:00,1864E-3,5C000400,-0724,0837,12118,030.3,045.5,0.251,754.9,01.17,0.508
2016-04-12 04:04:00,1952E-3,5C000400,-0724,0837,10958,030.3,045.5,0.251,754.9,01.17,0.508
2016-04-12 04:05:00,2010E-3,5C000400,-0724,0836,12346,030.3,045.5,0.251,754.9,01.17,0.508
2016-04-12 04:06:00,1944E-3,5C000400,-0724,0838,12284,030.3,045.5,0.251,755.0,01.17,0.508
2016-04-12 04:07:00,1940E-3,5C000400,-0724,0835,11158,030.3,045.5,0.251,754.9,01.17,0.508
2016-04-12 04:08:00,1957E-3,5C000400,-0724,0837,12361,030.3,045.5,0.251,754.9,01.17,0.508
2016-04-12 04:09:00,1768E-3,5C000400,-0724,0837,12106,030.3,045.5,0.251,754.9,01.17,0.508
2016-04-12 04:10:00,1970E-3,5C000400,-0724,0835,12324,030.3,045.5,0.251,754.9,01.17,0.508
2016-04-12 04:11:00,1988E-3,5C000400,-0724,0840,12306,030.3,045.5,0.251,755.0,01.17,0.508
2016-04-12 04:12:00,1814E-3,5C000400,-0724,0837,12088,030.4,045.5,0.251,755.0,01.17,0.508
2016-04-12 04:13:00,1942E-3,5C000400,-0724,0837,12075,030.4,045.5,0.251,755.0,01.17,0.508
2016-04-12 04:14:00,2064E-3,5C000400,-0724,0836,10822,030.4,045.5,0.251,755.0,01.17,0.508
2016-04-12 04:15:00,1939E-3,5C000400,-0724,0838,12115,030.4,045.5,0.251,755.0,01.17,0.508
2016-04-12 04:16:00,1887E-3,5C000400,-0724,0837,12138,030.4,045.5,0.251,755.0,01.17,0.508
2016-04-12 04:17:00,2057E-3,5C000400,-0724,0837,12193,030.4,045.5,0.250,755.0,01.17,0.508
2016-04-12 04:18:00,1785E-3,5C000400,-0724,0837,12211,030.4,045.5,0.250,755.0,01.17,0.508
2016-04-12 04:19:00,1866E-3,5C000400,-0724,0837,12025,030.4,045.5,0.250,755.0,01.17,0.508
2016-04-12 04:20:00,1917E-3,5C000400,-0724,0837,12036,030.4,045.5,0.250,755.0,01.17,0.508